Snowfall_Accumulation
nan nan nan nan nan nan nan 0.0 0.0 0.0 0.0 0.0 0.0 0.0 0.0 nan 0.0 0.0 0.0 0.0 0.0 0.0 0.0 0.0 0.0 0.0 0.0 0.0 0.0 0.0 0.0 0.0 0.2 0.0 0.0 0.0 0.0 0.0 0.0 0.3 0.0 0.2 0.4 0.4
nan nan nan nan nan nan 0.0 0.0 0.0 0.0 0.0 0.1 0.1 0.0 0.0 0.0 0.0 0.0 0.0 0.0 0.0 0.0 0.0 0.0 0.0 0.0 0.0 0.0 0.0 0.0 0.0 0.0 0.1 0.1 0.0 0.0 0.0 0.0 0.0 0.0 0.1 0.0 3.6 0.4
nan nan nan nan nan nan 0.0 0.0 0.1 0.0 0.0 0.0 0.0 0.0 0.0 0.0 0.0 0.0 0.0 0.0 0.0 0.0 0.0 0.0 0.0 0.0 0.0 0.0 0.0 nan nan 0.0 0.0 0.1 0.0 0.0 0.0 0.0 0.0 0.0 0.6 0.1 0.1 0.0
nan nan nan nan nan nan 0.0 0.0 0.0 0.0 0.0 0.0 0.0 0.0 0.0 0.0 0.0 0.0 0.0 0.0 0.0 0.0 0.0 0.0 0.0 0.0 0.0 0.0 nan 0.0 0.0 0.0 0.0 0.0 0.0 0.0 0.0 0.0 0.0 0.0 0.0 0.2 0.0 0.0
nan nan nan nan nan nan 0.0 0.0 0.0 0.0 0.0 0.0 0.0 0.0 0.0 0.0 0.0 0.0 0.0 0.0 0.0 0.0 0.0 0.0 0.0 0.0 0.0 0.0 0.0 0.0 0.0 0.1 0.0 0.0 0.0 0.0 0.0 0.0 0.0 0.0 0.0 0.0 0.0 0.0
nan nan nan nan nan nan 0.0 0.0 0.0 0.0 nan 0.0 0.0 0.0 0.0 0.0 0.0 0.0 0.0 0.0 0.0 0.0 0.0 0.0 0.0 0.0 0.0 0.0 0.0 0.0 0.0 0.1 0.2 0.1 0.0 0.0 0.9 0.0 0.0 0.0 0.0 0.0 0.1 0.0
nan nan nan nan nan nan 0.0 0.0 0.0 0.0 0.2 0.0 0.0 0.0 0.0 0.0 0.0 0.0 0.0 0.0 0.0 0.0 0.0 0.0 0.0 0.0 0.0 0.0 0.0 0.0 0.0 0.0 0.2 1.4 0.8 2.6 0.0 0.0 0.0 0.0 0.0 0.0 0.0 0.0
nan nan nan nan nan nan 0.0 0.0 0.0 0.0 3.3 0.0 0.0 0.0 0.0 0.0 0.0 0.0 0.0 0.0 0.0 0.0 0.0 0.2 0.0 0.4 0.1 0.1 0.0 0.0 0.0 0.0 1.0 3.3 0.5 0.0 0.0 0.0 0.0 0.0 0.0 0.0 0.0 0.0
nan nan nan nan nan nan 0.0 0.0 0.0 0.0 0.2 0.1 0.0 0.0 0.0 0.0 0.0 0.1 0.0 0.0 0.0 0.0 0.2 0.4 0.2 1.1 0.0 0.1 0.0 0.0 0.0 0.0 0.5 1.2 1.0 4.0 0.0 0.0 0.0 0.0 0.2 0.0 0.0 0.0
nan nan nan nan nan nan 0.0 0.0 0.0 0.0 0.1 0.0 0.0 0.0 0.0 0.0 0.0 0.1 0.0 0.0 0.0 0.0 0.7 3.3 1.6 0.9 0.0 0.3 0.1 0.7 0.9 0.8 2.1 1.4 2.4 0.7 0.0 0.0 0.0 0.9 0.1 0.0 0.0 0.0
nan nan nan nan nan nan 0.0 0.0 0.0 0.0 0.0 0.0 0.0 0.0 0.0 0.0 0.0 0.2 0.0 0.2 0.2 0.3 0.6 1.1 0.7 2.9 0.5 0.2 0.0 0.0 0.2 1.3 3.8 1.4 2.6 3.1 0.0 0.0 0.1 0.1 0.0 0.0 0.0 0.0
nan nan nan nan nan nan nan 0.0 0.0 0.0 0.0 0.0 0.0 0.0 0.0 0.0 0.0 0.0 0.0 0.0 0.0 0.0 0.2 0.9 0.9 3.0 3.8 0.1 1.1 0.0 0.6 0.2 0.4 0.1 0.5 0.0 0.0 0.0 0.0 0.0 0.0 0.0 0.0 0.0
nan nan nan nan nan nan nan 0.0 0.0 0.0 0.1 0.0 0.0 0.0 0.0 0.0 0.0 0.0 0.0 0.1 0.0 0.0 0.0 0.1 0.5 0.7 0.3 3.0 0.4 0.1 0.0 0.0 0.2 0.0 0.0 0.0 0.0 0.0 0.0 0.0 0.0 0.0 0.0 0.0
nan nan nan nan nan nan nan 0.0 0.0 0.0 0.0 1.3 0.1 0.0 0.0 0.0 0.0 0.0 0.0 0.0 0.0 0.0 0.0 0.5 1.1 2.4 0.0 0.7 0.3 0.3 0.0 0.0 0.0 0.0 0.0 0.0 0.0 0.0 0.0 0.0 0.0 0.0 0.0 0.0
nan nan nan nan nan nan nan 0.0 0.0 0.0 0.0 0.7 0.3 0.0 0.0 0.0 0.0 0.0 0.0 0.0 0.0 0.0 0.3 2.9 1.2 0.2 0.4 0.4 0.3 0.4 0.0 0.0 0.4 0.3 0.0 0.0 0.0 0.0 0.0 0.0 0.0 0.0 0.0 0.0
nan nan nan nan nan nan 0.0 0.0 0.0 0.0 0.0 0.2 1.1 0.0 0.0 0.0 0.0 0.0 0.0 0.0 0.0 0.0 0.1 1.4 0.1 0.0 0.2 3.9 0.5 0.0 0.0 0.0 0.0 0.0 0.0 0.0 0.0 0.0 0.0 0.0 0.0 0.0 0.0 0.0
nan nan nan nan nan 0.0 0.0 0.0 0.0 nan 0.0 0.2 1.1 0.5 0.1 0.0 0.0 0.0 0.0 0.0 0.0 0.0 0.1 0.5 0.2 0.2 0.0 1.8 0.8 0.0 0.0 0.0 0.0 0.0 0.0 0.0 0.0 0.0 0.0 0.0 0.0 0.0 0.0 0.0
nan nan nan nan nan nan 0.0 0.0 nan nan 0.0 0.1 1.4 1.3 0.5 0.0 0.3 0.7 0.0 0.2 0.2 0.0 0.0 0.5 0.5 0.2 0.7 0.7 0.0 0.0 0.0 0.0 0.0 0.0 0.0 0.0 0.0 0.0 0.0 0.0 0.0 0.0 0.0 0.0
nan nan nan 0.0 0.0 0.1 0.0 nan nan 0.0 0.0 0.4 4.4 2.1 4.2 0.0 0.1 0.5 0.3 0.0 1.3 0.1 1.2 0.7 0.2 0.8 1.0 0.0 0.0 0.0 0.0 0.0 0.0 0.0 0.0 0.0 0.0 0.0 0.0 0.0 0.0 0.1 0.1 0.0
nan 0.0 0.0 0.5 0.3 nan nan 0.0 0.3 0.3 0.3 0.2 1.6 0.2 1.0 0.0 0.6 0.9 0.6 0.7 1.4 1.9 1.4 0.0 1.6 0.4 0.0 0.0 0.0 0.0 0.0 0.0 0.0 0.0 0.0 0.0 0.0 0.0 0.0 0.0 0.0 0.0 0.0 0.0
0.0 0.3 0.3 0.0 nan 0.0 0.1 0.5 0.5 0.3 1.1 0.2 0.4 0.3 0.3 0.1 1.3 1.7 0.7 2.3 1.9 3.9 0.8 2.0 1.5 0.9 0.0 0.0 0.0 0.0 0.0 0.0 0.0 0.0 0.0 0.0 0.0 0.0 0.0 0.0 0.0 0.0 0.0 0.0
0.0 0.1 0.0 0.0 0.0 0.5 1.5 3.5 2.1 0.9 0.8 0.6 1.3 0.6 0.1 0.6 0.0 0.5 1.4 1.7 1.8 2.9 0.3 4.8 2.8 0.3 0.0 0.0 0.0 0.0 0.0 0.0 0.0 0.0 0.0 0.0 0.0 0.0 0.0 0.0 0.0 0.1 0.1 2.0
0.0 0.2 0.2 0.3 3.9 24.2 6.4 5.0 3.6 7.3 1.8 2.6 2.3 6.4 0.7 0.7 0.2 1.9 1.6 5.8 5.4 0.5 6.9 1.3 0.9 0.0 0.0 0.0 0.0 0.0 0.0 0.0 0.0 0.0 0.0 0.0 0.0 0.0 0.0 0.1 0.1 0.6 0.1 0.0
0.4 2.2 27.6 6.4 8.4 3.2 2.6 1.6 2.2 2.4 2.3 1.6 1.0 2.2 1.6 2.4 2.7 2.8 7.2 3.0 1.2 7.1 5.2 2.6 0.4 0.1 0.0 0.0 0.0 0.0 0.0 0.3 0.1 0.0 0.0 0.1 0.1 0.1 0.6 1.9 2.5 1.8 0.1 0.1
0.6 1.2 19.5 6.2 2.9 2.6 2.9 2.6 2.1 1.1 0.9 1.0 1.6 1.5 0.4 4.2 7.1 3.3 3.2 8.0 7.3 3.5 3.9 2.3 1.2 0.2 0.0 0.0 0.0 0.0 0.1 0.8 0.4 0.0 0.1 1.3 0.8 0.2 0.1 0.3 0.1 0.1 2.6 2.6
0.7 1.3 4.3 3.0 6.5 11.0 9.4 6.0 5.1 0.5 0.9 0.9 0.9 2.3 5.2 5.7 4.7 3.9 4.6 3.2 3.4 4.3 1.8 1.0 0.3 0.1 0.0 0.0 0.0 0.0 0.0 0.0 0.0 0.0 0.0 0.2 0.9 1.1 0.1 0.2 0.5 3.9 3.7 6.8
1.1 8.4 2.7 4.2 4.8 6.7 5.2 3.3 1.3 0.0 2.3 8.8 2.5 4.3 2.5 1.4 4.1 2.2 1.3 7.5 2.9 1.6 0.6 0.3 0.0 0.0 0.0 0.0 0.0 0.8 0.1 0.0 0.0 0.0 0.0 0.0 0.1 0.3 0.3 0.5 0.0 0.1 0.2 5.6
Water_Equivalent
nan nan nan nan nan nan nan 0.00 0.00 0.00 0.00 0.00 0.00 0.00 0.00 nan 0.00 0.00 0.00 0.00 0.00 0.00 0.00 0.00 0.00 0.00 0.00 0.00 0.00 0.00 0.00 0.00 0.06 0.00 0.00 0.00 0.00 0.00 0.00 0.09 0.00 0.06 0.10 0.10
nan nan nan nan nan nan 0.00 0.00 0.00 0.00 0.00 0.03 0.04 0.00 0.00 0.00 0.00 0.00 0.00 0.00 0.00 0.00 0.00 0.00 0.00 0.00 0.00 0.00 0.00 0.00 0.00 0.01 0.03 0.01 0.00 0.00 0.00 0.00 0.00 0.00 0.02 0.00 0.79 0.08
nan nan nan nan nan nan 0.00 0.00 0.02 0.00 0.00 0.00 0.00 0.00 0.00 0.00 0.00 0.00 0.00 0.00 0.00 0.00 0.00 0.00 0.00 0.00 0.00 0.00 0.00 nan nan 0.00 0.00 0.02 0.00 0.00 0.00 0.00 0.00 0.00 0.15 0.04 0.03 0.00
nan nan nan nan nan nan 0.00 0.00 0.00 0.00 0.00 0.00 0.00 0.00 0.00 0.00 0.00 0.00 0.00 0.00 0.00 0.00 0.00 0.00 0.00 0.00 0.00 0.00 nan 0.00 0.00 0.00 0.00 0.00 0.00 0.00 0.00 0.00 0.00 0.00 0.00 0.05 0.00 0.00
nan nan nan nan nan nan 0.00 0.00 0.00 0.00 0.00 0.00 0.00 0.00 0.00 0.00 0.00 0.00 0.00 0.00 0.00 0.00 0.00 0.00 0.00 0.00 0.00 0.00 0.00 0.00 0.00 0.03 0.00 0.00 0.00 0.00 0.00 0.00 0.00 0.00 0.00 0.00 0.00 0.00
nan nan nan nan nan nan 0.00 0.00 0.00 0.00 nan 0.00 0.01 0.00 0.00 0.00 0.00 0.00 0.00 0.00 0.00 0.00 0.00 0.00 0.00 0.00 0.00 0.00 0.00 0.00 0.00 0.03 0.05 0.02 0.00 0.00 0.21 0.00 0.00 0.00 0.00 0.00 0.02 0.00
nan nan nan nan nan nan 0.00 0.00 0.00 0.01 0.05 0.00 0.00 0.00 0.00 0.00 0.00 0.00 0.00 0.00 0.00 0.00 0.00 0.00 0.00 0.00 0.00 0.00 0.00 0.00 0.00 0.00 0.05 0.34 0.18 0.57 0.00 0.00 0.00 0.00 0.00 0.00 0.00 0.00
nan nan nan nan nan nan 0.00 0.00 0.00 0.01 1.03 0.00 0.00 0.00 0.00 0.00 0.00 0.00 0.00 0.00 0.00 0.00 0.00 0.06 0.01 0.11 0.03 0.02 0.00 0.00 0.00 0.01 0.25 0.79 0.12 0.00 0.00 0.00 0.00 0.00 0.00 0.00 0.00 0.00
nan nan nan nan nan nan 0.00 0.00 0.00 0.00 0.09 0.03 0.00 0.00 0.00 0.00 0.00 0.03 0.00 0.00 0.00 0.00 0.06 0.12 0.05 0.25 0.00 0.02 0.00 0.00 0.00 0.00 0.14 0.28 0.22 0.83 0.00 0.00 0.00 0.00 0.06 0.00 0.00 0.00
nan nan nan nan nan nan 0.00 0.00 0.00 0.00 0.02 0.00 0.00 0.00 0.00 0.00 0.00 0.02 0.01 0.00 0.00 0.00 0.21 0.99 0.40 0.21 0.00 0.08 0.03 0.17 0.21 0.20 0.49 0.34 0.56 0.16 0.00 0.00 0.00 0.21 0.01 0.00 0.00 0.00
nan nan nan nan nan nan 0.00 0.00 0.00 0.00 0.00 0.00 0.00 0.00 0.00 0.00 0.00 0.07 0.00 0.06 0.06 0.11 0.21 0.33 0.20 0.79 0.12 0.05 0.00 0.00 0.04 0.31 0.93 0.35 0.62 0.68 0.00 0.00 0.03 0.04 0.00 0.00 0.00 0.00
nan nan nan nan nan nan nan 0.00 0.00 0.00 0.00 0.00 0.00 0.00 0.00 0.00 0.00 0.00 0.00 0.00 0.00 0.00 0.06 0.30 0.28 0.90 1.25 0.03 0.26 0.00 0.15 0.05 0.11 0.02 0.13 0.00 0.00 0.00 0.00 0.00 0.00 0.00 0.00 0.00
nan nan nan nan nan nan nan 0.00 0.00 0.00 0.04 0.00 0.00 0.00 0.00 0.00 0.00 0.00 0.00 0.03 0.00 0.00 0.00 0.03 0.16 0.23 0.09 0.86 0.13 0.03 0.00 0.00 0.07 0.01 0.00 0.00 0.00 0.00 0.00 0.00 0.00 0.00 0.00 0.00
nan nan nan nan nan nan nan 0.00 0.00 0.00 0.00 0.47 0.05 0.00 0.00 0.00 0.00 0.00 0.00 0.00 0.00 0.00 0.00 0.18 0.39 0.77 0.00 0.21 0.10 0.10 0.01 0.00 0.00 0.00 0.00 0.00 0.00 0.00 0.00 0.00 0.00 0.00 0.00 0.00
nan nan nan nan nan nan nan 0.00 0.00 0.00 0.00 0.26 0.09 0.00 0.00 0.00 0.00 0.00 0.00 0.00 0.00 0.00 0.12 1.06 0.43 0.06 0.14 0.13 0.10 0.14 0.00 0.00 0.12 0.10 0.00 0.00 0.00 0.00 0.00 0.00 0.00 0.00 0.00 0.00
nan nan nan nan nan nan 0.00 0.00 0.00 0.00 0.00 0.08 0.39 0.00 0.00 0.00 0.00 0.00 0.00 0.00 0.00 0.00 0.02 0.50 0.04 0.00 0.06 1.40 0.17 0.00 0.00 0.00 0.00 0.00 0.00 0.00 0.00 0.00 0.00 0.00 0.00 0.00 0.00 0.00
nan nan nan nan nan 0.00 0.00 0.00 0.00 nan 0.00 0.09 0.41 0.16 0.03 0.00 0.00 0.00 0.00 0.00 0.00 0.00 0.05 0.18 0.09 0.08 0.01 0.61 0.26 0.00 0.00 0.00 0.00 0.00 0.00 0.00 0.00 0.00 0.00 0.00 0.00 0.00 0.00 0.00
nan nan nan nan nan nan 0.00 0.00 nan nan 0.00 0.04 0.48 0.46 0.19 0.00 0.12 0.24 0.00 0.06 0.06 0.01 0.00 0.18 0.19 0.07 0.24 0.23 0.00 0.00 0.00 0.00 0.00 0.00 0.00 0.00 0.00 0.00 0.00 0.00 0.00 0.00 0.00 0.01
nan nan nan 0.00 0.00 0.03 0.00 nan nan 0.00 0.01 0.14 1.53 0.69 1.34 0.00 0.04 0.17 0.11 0.01 0.47 0.02 0.44 0.24 0.09 0.28 0.35 0.00 0.00 0.00 0.00 0.00 0.00 0.00 0.00 0.00 0.00 0.00 0.00 0.00 0.00 0.01 0.02 0.00
nan 0.00 0.00 0.16 0.09 nan nan 0.00 0.09 0.09 0.10 0.08 0.58 0.08 0.36 0.00 0.21 0.34 0.22 0.24 0.50 0.54 0.51 0.01 0.59 0.15 0.00 0.00 0.00 0.00 0.00 0.00 0.00 0.00 0.00 0.00 0.00 0.00 0.00 0.00 0.00 0.00 0.00 0.00
0.01 0.10 0.11 0.00 nan 0.00 0.04 0.18 0.18 0.10 0.35 0.07 0.14 0.10 0.12 0.05 0.47 0.60 0.24 0.72 0.60 0.91 0.20 0.56 0.40 0.22 0.00 0.00 0.00 0.00 0.00 0.00 0.00 0.00 0.00 0.00 0.00 0.00 0.00 0.00 0.00 0.00 0.00 0.00
0.00 0.02 0.00 0.00 0.00 0.16 0.55 1.17 0.64 0.28 0.23 0.21 0.46 0.23 0.05 0.23 0.00 0.18 0.44 0.44 0.46 0.63 0.09 1.36 0.61 0.08 0.00 0.00 0.00 0.00 0.00 0.00 0.00 0.00 0.00 0.00 0.00 0.00 0.00 0.00 0.00 0.01 0.02 0.41
0.00 0.07 0.09 0.11 1.26 4.45 1.72 1.11 0.94 1.97 0.58 0.96 0.82 2.34 0.25 0.24 0.07 0.63 0.49 1.42 1.21 0.15 1.59 0.28 0.19 0.00 0.00 0.00 0.00 0.00 0.00 0.00 0.00 0.00 0.00 0.00 0.00 0.00 0.01 0.03 0.02 0.14 0.02 0.01
0.13 0.70 4.79 1.78 2.12 0.74 0.61 0.41 0.65 0.80 0.83 0.57 0.37 0.75 0.49 0.75 0.84 0.75 1.74 0.72 0.33 1.47 1.05 0.56 0.10 0.02 0.00 0.00 0.00 0.00 0.00 0.08 0.01 0.00 0.00 0.02 0.03 0.03 0.13 0.41 0.52 0.35 0.03 0.03
0.17 0.36 3.09 1.32 0.70 0.70 0.88 0.92 0.74 0.38 0.31 0.34 0.51 0.46 0.11 1.09 1.78 0.81 0.73 1.68 1.51 0.73 0.81 0.49 0.30 0.05 0.00 0.00 0.00 0.00 0.01 0.18 0.08 0.00 0.02 0.27 0.16 0.05 0.03 0.06 0.03 0.03 0.47 0.46
0.19 0.31 0.98 0.80 1.66 2.76 2.91 1.98 1.74 0.19 0.30 0.29 0.29 0.53 1.15 1.22 1.08 0.86 0.99 0.64 0.62 0.89 0.43 0.26 0.08 0.03 0.01 0.00 0.01 0.00 0.00 0.01 0.00 0.00 0.00 0.05 0.18 0.22 0.01 0.04 0.12 0.74 0.72 1.17
0.28 1.82 0.74 1.25 1.34 1.77 1.52 1.06 0.41 0.02 0.72 2.26 0.61 0.92 0.51 0.32 0.82 0.43 0.29 1.50 0.64 0.39 0.16 0.08 0.01 0.01 0.00 0.00 0.00 0.18 0.02 0.00 0.01 0.00 0.01 0.01 0.02 0.06 0.05 0.10 0.01 0.02 0.05 0.99
SL_Ratio
nan nan nan nan nan nan nan nan nan nan nan nan nan nan nan nan nan nan nan nan nan nan nan nan nan nan nan nan nan nan nan 3.3 3.8 nan nan nan nan nan nan 3.9 0.0 3.8 4.1 4.6
nan nan nan nan nan nan nan nan nan nan nan 3.1 3.2 nan nan nan nan nan nan nan nan nan nan nan nan nan nan nan nan nan nan 3.3 4.1 4.0 4.0 nan nan nan nan nan 3.6 nan 4.6 4.4
nan nan nan nan nan nan nan nan 2.7 nan nan nan nan nan nan nan nan nan nan nan nan nan nan nan nan nan nan nan nan nan nan nan nan 4.0 nan nan nan nan nan nan 4.1 4.0 3.6 nan
nan nan nan nan nan nan nan nan nan nan 0.0 nan nan nan nan nan nan nan nan nan nan nan nan nan nan nan nan nan nan nan nan nan nan nan nan nan nan nan nan nan nan 4.0 nan nan
nan nan nan nan nan nan nan nan nan nan nan nan nan nan nan nan nan nan nan nan nan nan nan nan nan nan nan nan nan nan nan 3.6 nan nan nan nan nan nan nan nan nan nan nan nan
nan nan nan nan nan nan nan nan nan nan nan 2.5 2.7 nan nan nan nan nan nan nan nan 3.3 nan nan nan nan nan nan nan nan nan 3.8 4.0 4.0 nan 4.3 4.4 nan nan nan nan nan 3.8 nan
nan nan nan nan nan nan nan nan nan 2.8 3.1 3.3 nan nan nan nan nan nan nan nan nan nan nan nan nan nan nan nan nan nan nan 0.0 4.0 4.1 4.3 4.6 4.0 nan nan nan nan nan nan nan
nan nan nan nan nan nan nan nan nan 2.8 3.2 2.7 nan nan nan nan nan nan nan nan nan nan nan 3.0 3.6 3.7 3.8 4.0 nan nan nan 3.2 4.1 4.1 4.2 nan nan nan nan nan nan nan nan nan
nan nan nan nan nan nan nan nan nan nan 2.8 2.8 nan nan nan 2.9 nan 3.0 nan nan nan nan 3.1 3.6 4.5 4.2 nan 3.8 nan nan nan nan 3.7 4.1 4.4 4.8 nan nan nan nan 3.8 nan nan nan
nan nan nan nan nan nan nan nan nan nan 2.8 nan nan nan nan nan 2.0 2.9 3.2 nan 3.1 nan 3.2 3.3 3.9 4.1 nan 4.0 4.2 4.3 4.0 4.0 4.3 4.1 4.2 4.1 nan nan nan 4.3 4.1 nan nan nan
nan nan nan nan nan nan nan nan nan nan 0.0 nan nan nan nan nan nan 2.9 nan 2.9 2.9 2.8 3.1 3.4 3.6 3.7 3.8 4.0 nan 4.0 4.1 4.1 4.1 3.9 4.2 4.5 nan nan 3.9 3.5 nan nan nan nan
nan nan nan nan nan nan nan nan nan nan nan nan nan nan nan nan nan nan nan 2.9 nan 0.0 2.9 3.0 3.3 3.4 3.1 3.8 4.2 nan 4.0 3.8 3.8 3.9 4.0 nan nan nan nan nan nan nan nan nan
nan nan nan nan nan nan nan nan nan nan 2.8 nan nan nan nan nan nan nan nan 2.8 nan 0.0 nan 3.0 3.0 3.3 3.1 3.5 3.4 3.4 nan nan 3.3 3.4 nan nan nan nan nan nan nan nan nan nan
nan nan nan nan nan nan nan nan nan nan 4.0 2.7 2.8 nan nan nan nan nan nan nan nan nan 2.5 2.9 2.9 3.1 nan 3.2 3.1 3.1 2.6 2.7 nan nan nan nan nan nan nan nan nan nan nan nan
nan nan nan nan nan nan nan nan nan nan nan 2.7 2.8 nan nan nan nan nan nan nan nan 0.0 2.8 2.7 2.8 3.1 2.9 2.8 2.9 3.1 nan nan 3.1 3.1 nan nan nan nan nan nan nan nan nan nan
nan nan nan nan nan nan nan nan nan nan nan 2.8 2.8 2.5 nan nan nan nan nan nan nan nan 2.7 2.7 2.8 nan 2.9 2.8 3.0 nan nan nan nan nan nan nan nan nan nan nan nan nan nan nan
nan nan nan nan nan nan nan nan nan nan nan 2.7 2.8 2.9 2.8 nan nan nan nan nan nan nan 2.7 2.8 2.8 2.9 2.5 2.9 3.1 nan nan nan nan nan nan nan nan nan nan nan nan nan nan nan
nan nan nan nan nan nan nan nan nan nan nan 2.8 2.9 2.9 2.8 nan 2.8 2.8 nan 2.7 2.8 2.8 nan 2.8 2.8 2.8 2.9 2.9 nan nan nan nan nan nan nan nan nan nan nan nan nan nan nan 3.9
nan nan nan nan nan 2.8 2.0 nan nan nan 2.9 2.8 2.9 3.1 3.1 nan 2.8 2.8 2.9 2.7 2.8 2.8 2.8 2.8 2.8 2.8 2.9 0.0 nan nan nan nan nan nan nan nan nan nan nan nan nan 4.0 4.2 nan
nan nan 2.2 2.8 2.8 nan nan 2.7 2.7 2.8 2.8 2.8 2.8 2.8 2.8 2.5 2.8 2.8 2.8 2.8 2.9 3.6 2.8 3.1 2.8 2.8 nan nan nan nan nan nan nan nan nan nan nan nan nan nan nan nan nan nan
2.6 2.8 2.8 nan nan nan 2.8 2.8 3.0 2.7 3.0 2.8 2.8 2.8 2.8 2.8 2.8 2.8 2.8 3.2 3.1 4.3 4.0 3.5 3.8 4.1 nan nan nan nan nan nan nan nan nan nan nan 0.0 3.1 4.3 nan 4.0 3.8 5.0
nan 2.8 nan 3.0 nan 2.8 2.8 3.0 3.2 3.1 3.5 3.0 2.9 2.8 2.8 2.8 nan 2.8 3.2 3.8 3.8 4.5 3.3 3.6 4.6 3.9 nan nan nan nan nan nan nan nan nan nan nan nan nan nan nan 4.3 4.3 4.9
nan 2.8 2.8 2.8 3.1 5.4 3.7 4.5 3.9 3.7 3.0 2.8 2.8 2.7 2.8 2.8 2.8 3.0 3.2 4.1 4.5 3.4 4.3 4.6 4.5 nan nan nan nan nan nan nan 3.3 nan nan nan nan nan 4.3 4.4 4.3 4.4 4.4 4.3
3.0 3.1 5.8 3.6 4.0 4.3 4.3 3.9 3.3 3.0 2.8 2.7 2.8 2.9 3.2 3.2 3.2 3.7 4.1 4.1 3.8 4.8 4.9 4.6 4.1 4.1 nan nan nan nan nan 4.3 4.1 nan 0.0 4.2 4.3 4.5 4.8 4.7 4.8 5.3 4.7 4.7
3.2 3.3 6.3 4.7 4.2 3.7 3.3 2.8 2.8 2.8 2.8 2.8 3.1 3.3 3.2 3.9 4.0 4.1 4.3 4.8 4.8 4.8 4.9 4.7 4.1 4.3 nan nan nan nan 4.1 4.6 4.8 nan 4.3 4.8 4.7 4.5 4.4 4.5 4.4 4.6 5.6 5.7
3.6 4.0 4.4 3.7 3.9 4.0 3.2 3.0 2.9 2.8 2.9 3.1 3.2 4.3 4.5 4.6 4.4 4.5 4.6 5.0 5.4 4.8 4.3 3.8 3.7 4.3 3.1 2.5 3.2 5.0 5.0 3.8 0.0 nan 4.2 4.6 5.0 4.9 4.0 4.2 4.5 5.3 5.1 5.8
4.0 4.6 3.6 3.4 3.5 3.8 3.4 3.1 3.0 2.7 3.2 3.9 4.1 4.7 4.9 4.3 5.0 5.2 4.7 5.0 4.5 4.0 3.7 3.4 3.5 3.5 3.3 4.4 3.3 4.6 4.6 0.0 4.1 3.3 4.5 4.3 4.4 4.7 4.7 4.8 4.3 4.5 4.7 5.6